| time (UTC) | temp F | wind direction | speed MPH | gust MPH | rain 1hr in | rain 24hr in | rain mn in | humidity % | barometer mb |
| 20260503203003 | 85 | 200 | 14.0 | 20.0 | 0.00 | 0.00 | 0.00 | 22 | 1057.6 |
| 20260503201503 | 84 | 191 | 15.0 | 22.0 | 0.00 | 0.00 | 0.00 | 24 | 1057.9 |
| 20260503200004 | 84 | 231 | 9.0 | 16.0 | 0.00 | 0.00 | 0.00 | 22 | 1058.2 |
| 20260503194503 | 84 | 218 | 9.0 | 20.0 | 0.00 | 0.00 | 0.00 | 20 | 1058.6 |
| 20260503193003 | 84 | 173 | 20.0 | 20.0 | 0.00 | 0.00 | 0.00 | 20 | 1058.6 |
| 20260503191503 | 84 | 208 | 16.0 | 20.0 | 0.00 | 0.00 | 0.00 | 21 | 1058.9 |
| 20260503190003 | 84 | 212 | 16.0 | 18.0 | 0.00 | 0.00 | 0.00 | 21 | 1059.3 |
| 20260503184503 | 83 | 225 | 13.0 | 18.0 | 0.00 | 0.00 | 0.00 | 20 | 1059.3 |
| 20260503183003 | 83 | 208 | 8.0 | 16.0 | 0.00 | 0.00 | 0.00 | 24 | 1059.6 |
| 20260503181504 | 82 | 217 | 12.0 | 17.0 | 0.00 | 0.00 | 0.00 | 26 | 1059.9 |
| 20260503180003 | 82 | 213 | 13.0 | 13.0 | 0.00 | 0.00 | 0.00 | 27 | 1060.3 |
| 20260503174503 | 81 | 260 | 10.0 | 14.0 | 0.00 | 0.00 | 0.00 | 28 | 1060.3 |
| 20260503173003 | 80 | 221 | 13.0 | 16.0 | 0.00 | 0.00 | 0.00 | 30 | 1060.6 |
| 20260503171503 | 80 | 202 | 11.0 | 15.0 | 0.00 | 0.00 | 0.00 | 31 | 1061.0 |
| 20260503130503 | 59 | 199 | 9.0 | 14.0 | 0.00 | 0.00 | 0.00 | 63 | 1061.3 |
| 20260503080503 | 58 | 136 | 9.0 | 12.0 | 0.00 | 0.00 | 0.00 | 57 | 1062.3 |
| 20260503072502 | 59 | 158 | 6.0 | 9.0 | 0.00 | 0.00 | 0.00 | 54 | 1063.0 |
| 20260503071003 | 59 | 176 | 7.0 | 11.0 | 0.00 | 0.00 | 0.00 | 54 | 1063.0 |
| 20260503054504 | 60 | 96 | 5.0 | 7.0 | 0.00 | 0.00 | 0.00 | 51 | 1063.3 |
| 20260503053004 | 60 | 130 | 3.0 | 4.0 | 0.00 | 0.00 | 0.00 | 51 | 1063.3 |
| 20260503050008 | 60 | 151 | 3.0 | 5.0 | 0.00 | 0.00 | 0.00 | 51 | 1063.3 |
| 20260503044503 | 60 | 139 | 3.0 | 6.0 | 0.00 | 0.00 | 0.00 | 51 | 1063.0 |
| 20260503043003 | 60 | 137 | 3.0 | 7.0 | 0.00 | 0.00 | 0.00 | 52 | 1063.0 |
| 20260503041503 | 60 | 171 | 3.0 | 6.0 | 0.00 | 0.00 | 0.00 | 52 | 1063.0 |
| 20260503040003 | 61 | 345 | 0.0 | 2.0 | 0.00 | 0.00 | 0.00 | 51 | 1063.0 |
| 20260503034503 | 62 | 70 | 2.0 | 3.0 | 0.00 | 0.00 | 0.00 | 51 | 1063.3 |
| 20260503033003 | 62 | 19 | 2.0 | 4.0 | 0.00 | 0.00 | 0.00 | 50 | 1063.3 |
| 20260503031503 | 63 | 123 | 6.0 | 6.0 | 0.00 | 0.00 | 0.00 | 48 | 1063.0 |
| 20260503030502 | 63 | 141 | 4.0 | 5.0 | 0.00 | 0.00 | 0.00 | 47 | 1063.0 |
| 20260503025003 | 64 | 29 | 2.0 | 7.0 | 0.00 | 0.00 | 0.00 | 47 | 1062.6 |
| 20260503023503 | 65 | 58 | 7.0 | 7.0 | 0.00 | 0.00 | 0.00 | 47 | 1062.6 |
| 20260503021002 | 66 | 42 | 4.0 | 6.0 | 0.00 | 0.00 | 0.00 | 45 | 1062.3 |
| 20260503014003 | 68 | 3 | 4.0 | 4.0 | 0.00 | 0.00 | 0.00 | 42 | 1062.0 |
| 20260503012503 | 69 | 7 | 3.0 | 7.0 | 0.00 | 0.00 | 0.00 | 40 | 1062.0 |
| 20260503011003 | 70 | 123 | 3.0 | 7.0 | 0.00 | 0.00 | 0.00 | 38 | 1062.0 |
| 20260503010002 | 70 | 49 | 6.0 | 8.0 | 0.00 | 0.00 | 0.00 | 37 | 1062.0 |
| 20260503004503 | 71 | 87 | 6.0 | 7.0 | 0.00 | 0.00 | 0.00 | 36 | 1061.6 |
| 20260503003003 | 72 | 36 | 5.0 | 9.0 | 0.00 | 0.00 | 0.00 | 35 | 1061.6 |
| 20260503002002 | 72 | 58 | 7.0 | 12.0 | 0.00 | 0.00 | 0.00 | 35 | 1061.6 |
| 20260503000503 | 73 | 45 | 7.0 | 9.0 | 0.00 | 0.00 | 0.00 | 33 | 1061.6 |
| 20260502235003 | 73 | 338 | 7.0 | 7.0 | 0.00 | 0.00 | 0.00 | 31 | 1061.6 |
| 20260502233503 | 74 | 49 | 4.0 | 8.0 | 0.00 | 0.00 | 0.00 | 31 | 1061.6 |
| 20260502232003 | 74 | 298 | 6.0 | 7.0 | 0.00 | 0.00 | 0.00 | 31 | 1061.6 |
| 20260502230503 | 74 | 9 | 9.0 | 13.0 | 0.00 | 0.00 | 0.00 | 30 | 1062.0 |
| 20260502225003 | 73 | 350 | 3.0 | 9.0 | 0.00 | 0.00 | 0.00 | 31 | 1062.0 |
| 20260502223503 | 74 | 334 | 8.0 | 13.0 | 0.00 | 0.00 | 0.00 | 31 | 1062.0 |
| 20260502222502 | 74 | 105 | 2.0 | 6.0 | 0.00 | 0.00 | 0.00 | 31 | 1062.0 |
| 20260502221003 | 73 | 56 | 5.0 | 13.0 | 0.00 | 0.00 | 0.00 | 33 | 1062.3 |
| 20260502215503 | 73 | 7 | 4.0 | 9.0 | 0.00 | 0.00 | 0.00 | 32 | 1062.3 |
| 20260502214003 | 74 | 342 | 9.0 | 11.0 | 0.00 | 0.00 | 0.00 | 32 | 1062.3 |
| 20260502212503 | 74 | 54 | 7.0 | 9.0 | 0.00 | 0.00 | 0.00 | 33 | 1062.6 |
| 20260502211502 | 74 | 65 | 9.0 | 11.0 | 0.00 | 0.00 | 0.00 | 34 | 1063.0 |
| 20260502210003 | 75 | 43 | 4.0 | 7.0 | 0.00 | 0.00 | 0.00 | 33 | 1063.0 |
| 20260502205003 | 72 | 350 | 2.0 | 10.0 | 0.00 | 0.00 | 0.00 | 35 | 1063.3 |